Weather History for KLYV - October, 2011

Change the Weather History Date:

Monday, October 24, 2011

  Actual Average (KFSD) Record (KFSD)
Temperature  
Mean Temperature 49 °F 45 °F  
Max Temperature 68 °F 56 °F 81 °F (1989)
Min Temperature 30 °F 33 °F 17 °F (1955)
Degree Days  
Heating Degree Days 16 21  
Month to date heating degree days 380  
Since 1 July heating degree days 584  
Cooling Degree Days 0 0  
Month to date cooling degree days 0  
Year to date cooling degree days 685  
Moisture  
Dew Point 31 °F    
Average Humidity 62    
Maximum Humidity 100    
Minimum Humidity 20    
Precipitation  
Precipitation 0.00 in 0.05 in 0.88 in (1973)
Month to date precipitation 1.81  
Year to date precipitation 23.97  
Snow  
Snow 0.00 in 0.10 in 0.80 in (1981)
Month to date snowfall 0.7  
Since 1 July snowfall 0.7  
Since 1 September snowfall 0.7  
Snow Depth -    
Sea Level Pressure  
Sea Level Pressure 29.98 in    
Wind  
Wind Speed 2 mph (ENE)    
Max Wind Speed 14 mph    
Max Gust Speed 20 mph    
Visibility 10 miles    
Events      
T = Trace of Precipitation, MM = Missing Value Source: NWS Daily Summary

Daily Weather History Graph

Daily Weather History Graph

Search for Another Location

Airport or City:

Trip Planner

Search our weather history database for the weather conditions in past years. The results will help you decide how hot, cold, wet, or windy it might be!

Date:

Astronomy

Oct. 24, 2011 Rise Set
Actual Time 7:49 AM CDT 6:27 PM CDT
Civil Twilight 7:20 AM CDT 6:56 PM CDT
Nautical Twilight 6:47 AM CDT 7:30 PM CDT
Astronomical Twilight 6:13 AM CDT 8:03 PM CDT
Moon 5:06 AM CDT (10/24) 4:55 PM CDT (10/24)
Length of Visible Light 11h 36m
Length of Day
10h 37m
Waning Crescent, 7% of the Moon is Illuminated
Oct 24
Waning Crescent
Oct 26
New
Nov 2
First Quarter
Nov 10
Full
Nov 18
Last Quarter

Hourly Weather History & Observations

Time (CDT) Temp. Windchill Dew Point Humidity Pressure Visibility Wind Dir Wind Speed Gust Speed Precip Events Conditions
12:15 AM 35.6 °F - 32.0 °F 87% 30.00 in 10.0 mi Calm Calm - N/A   Clear
12:35 AM 35.6 °F - 32.0 °F 87% 29.99 in 10.0 mi Calm Calm - N/A   Clear
12:54 AM 32.0 °F 28.7 °F 30.2 °F 93% 30.00 in 10.0 mi SW 3.5 mph - N/A   Clear
1:15 AM 35.6 °F - 32.0 °F 87% 30.00 in 10.0 mi Calm Calm - N/A   Clear
1:35 AM 33.8 °F - 32.0 °F 93% 30.00 in 10.0 mi Calm Calm - N/A   Clear
1:54 AM 33.8 °F - 32.0 °F 93% 30.01 in 10.0 mi Calm Calm - N/A   Clear
2:15 AM 33.8 °F - 32.0 °F 93% 30.01 in 10.0 mi Calm Calm - N/A   Clear
2:34 AM 33.8 °F - 32.0 °F 93% 30.02 in 10.0 mi Calm Calm - N/A   Clear
2:55 AM 32.0 °F - 30.2 °F 93% 30.02 in 10.0 mi Calm Calm - N/A   Clear
3:15 AM 32.0 °F - 30.2 °F 93% 30.02 in 10.0 mi Calm Calm - N/A   Clear
3:35 AM 32.0 °F - 30.2 °F 93% 30.01 in 10.0 mi Calm Calm - N/A   Clear
3:55 AM 33.8 °F - 32.0 °F 93% 30.01 in 10.0 mi Calm Calm - N/A   Clear
4:34 AM 32.0 °F - 32.0 °F 100% 30.01 in 7.0 mi Calm Calm - N/A   Clear
4:55 AM 32.0 °F - 32.0 °F 100% 30.02 in 7.0 mi Calm Calm - N/A   Clear
5:15 AM 32.0 °F - 30.2 °F 93% 30.02 in 7.0 mi Calm Calm - N/A   Clear
5:35 AM 32.0 °F - 32.0 °F 100% 30.02 in 7.0 mi Calm Calm - N/A   Clear
5:55 AM 32.0 °F - 30.2 °F 93% 30.02 in 10.0 mi Calm Calm - N/A   Clear
6:15 AM 32.0 °F - 30.2 °F 93% 30.03 in 7.0 mi Calm Calm - N/A   Clear
6:34 AM 30.2 °F - 28.4 °F 93% 30.03 in 10.0 mi Calm Calm - N/A   Clear
6:55 AM 30.2 °F - 28.4 °F 93% 30.03 in 10.0 mi Calm Calm - N/A   Clear
7:15 AM 30.2 °F - 28.4 °F 93% 30.04 in 10.0 mi Calm Calm - N/A   Clear
7:35 AM 32.0 °F - 30.2 °F 93% 30.04 in 10.0 mi Calm Calm - N/A   Clear
7:55 AM 32.0 °F - 30.2 °F 93% 30.04 in 10.0 mi Calm Calm - N/A   Clear
8:35 AM 32.0 °F - 32.0 °F 100% 30.05 in 10.0 mi Calm Calm - N/A   Scattered Clouds
8:55 AM 33.8 °F - 32.0 °F 93% 30.05 in 10.0 mi Calm Calm - N/A   Mostly Cloudy
9:14 AM 35.6 °F - 32.0 °F 87% 30.05 in 10.0 mi Calm Calm - N/A   Overcast
9:35 AM 37.4 °F - 33.8 °F 87% 30.05 in 7.0 mi Calm Calm - N/A   Mostly Cloudy
9:55 AM 39.2 °F - 35.6 °F 87% 30.05 in 7.0 mi Calm Calm - N/A   Mostly Cloudy
10:14 AM 42.8 °F - 37.4 °F 81% 30.05 in 10.0 mi Calm Calm - N/A   Scattered Clouds
10:35 AM 46.4 °F - 39.2 °F 76% 30.05 in 10.0 mi Calm Calm - N/A   Clear
10:55 AM 53.6 °F - 39.2 °F 58% 30.05 in 10.0 mi North 4.6 mph - N/A   Clear
11:14 AM 53.6 °F - 37.4 °F 54% 30.05 in 10.0 mi Calm Calm - N/A   Clear
11:35 AM 55.4 °F - 37.4 °F 51% 30.05 in 10.0 mi North 3.5 mph - N/A   Clear
11:55 AM 59.0 °F - 35.6 °F 42% 30.05 in 10.0 mi NNW 4.6 mph - N/A   Clear
12:14 PM 60.8 °F - 33.8 °F 36% 30.05 in 10.0 mi NNW 3.5 mph - N/A   Clear
12:35 PM 62.6 °F - 32.0 °F 32% 30.04 in 10.0 mi Calm Calm - N/A   Clear
12:54 PM 64.4 °F - 32.0 °F 30% 30.03 in 10.0 mi WNW 3.5 mph - N/A   Clear
1:14 PM 64.4 °F - 30.2 °F 28% 30.03 in 10.0 mi West 8.1 mph - N/A   Clear
1:35 PM 66.2 °F - 28.4 °F 24% 30.02 in 10.0 mi NNW 4.6 mph - N/A   Clear
1:55 PM 66.2 °F - 26.6 °F 23% 30.01 in 10.0 mi North 3.5 mph - N/A   Clear
2:35 PM 68.0 °F - 26.6 °F 21% 29.99 in 10.0 mi Calm Calm - N/A   Clear
2:54 PM 68.0 °F - 26.6 °F 21% 29.98 in 10.0 mi Calm Calm - N/A   Clear
3:15 PM 68.0 °F - 26.6 °F 21% 29.97 in 10.0 mi West 3.5 mph - N/A   Clear
3:35 PM 68.0 °F - 24.8 °F 20% 29.96 in 10.0 mi Calm Calm - N/A   Clear
3:54 PM 66.2 °F - 24.8 °F 21% 29.95 in 10.0 mi Calm Calm - N/A   Clear
4:15 PM 68.0 °F - 26.6 °F 21% 29.94 in 10.0 mi Calm Calm - N/A   Clear
4:34 PM 68.0 °F - 28.4 °F 23% 29.94 in 10.0 mi Calm Calm - N/A   Clear
4:55 PM 68.0 °F - 26.6 °F 21% 29.93 in 10.0 mi SE 5.8 mph - N/A   Clear
5:15 PM 64.4 °F - 28.4 °F 26% 29.92 in 10.0 mi ESE 5.8 mph - N/A   Clear
5:35 PM 62.6 °F - 30.2 °F 30% 29.92 in 10.0 mi ESE 6.9 mph - N/A   Clear
5:54 PM 60.8 °F - 30.2 °F 31% 29.91 in 10.0 mi ESE 5.8 mph - N/A   Clear
6:15 PM 59.0 °F - 32.0 °F 36% 29.91 in 10.0 mi ESE 5.8 mph - N/A   Clear
6:34 PM 55.4 °F - 32.0 °F 41% 29.91 in 10.0 mi East 5.8 mph - N/A   Clear
7:15 PM 53.6 °F - 32.0 °F 44% 29.91 in 10.0 mi East 8.1 mph - N/A   Clear
7:35 PM 53.6 °F - 32.0 °F 44% 29.91 in 7.0 mi East 6.9 mph - N/A   Clear
7:54 PM 53.6 °F - 32.0 °F 44% 29.91 in 10.0 mi East 6.9 mph - N/A   Clear
8:15 PM 51.8 °F - 32.0 °F 47% 29.90 in 10.0 mi ENE 6.9 mph - N/A   Clear
8:34 PM 53.6 °F - 32.0 °F 44% 29.90 in 10.0 mi ENE 9.2 mph - N/A   Clear
8:55 PM 53.6 °F - 32.0 °F 44% 29.90 in 10.0 mi East 10.4 mph - N/A   Clear
9:55 PM 53.6 °F - 32.0 °F 44% 29.89 in 10.0 mi ENE 12.7 mph - N/A   Clear
10:34 PM 51.8 °F - 32.0 °F 47% 29.88 in 10.0 mi NE 11.5 mph - N/A   Clear
10:55 PM 51.8 °F - 32.0 °F 47% 29.87 in 10.0 mi ENE 13.8 mph - N/A   Clear
11:14 PM 50.0 °F - 32.0 °F 50% 29.85 in 10.0 mi ENE 13.8 mph - N/A   Clear
11:35 PM 50.0 °F - 33.8 °F 54% 29.84 in 10.0 mi ENE 13.8 mph - N/A   Clear
11:55 PM 50.0 °F - 33.8 °F 54% 29.82 in 10.0 mi ENE 12.7 mph 19.6 mph N/A   Clear